This demonstration page uses our WeatherBlox Daily Observations layout. Learn more.

Left ArrowRight Arrow

Hourly Observations for February 8, 2022

Temp ( °F °C ) Dew Point ( °F °C ) Humidity (%) Winds ( mph kmh ) Pressure ( in mb ) Visibility ( mi km ) Precip ( " mm )
12:53 am 00:53 Clear 43 6.1 34 1.1 71 71 Calm 30.32 1027 10 16 0.00 0.00
1:53 am 01:53 Clear 48 8.9 32 0 54 54 VRB 3 6 30.31 1026 10 16 0.00 0.00
2:53 am 02:53 Clear 44 6.7 34 1.1 68 68 Calm 30.30 1026 10 16 0.00 0.00
3:53 am 03:53 Clear 46 7.8 31 -0.6 56 56 WNW 3 6 30.29 1026 10 16 0.00 0.00
4:53 am 04:53 Clear 49 9.4 29 -1.7 46 46 WSW 5 7 30.30 1026 10 16 0.00 0.00
5:53 am 05:53 Clear 54 12.2 27 -2.8 35 35 NNW 8 13 30.30 1026 10 16 0.00 0.00
6:53 am 06:53 Clear 61 16.1 25 -3.9 25 25 N 10 17 30.32 1027 10 16 0.00 0.00
7:53 am 07:53 Sunny 63 17.2 24 -4.4 23 23 N 10 17 30.34 1027 10 16 0.00 0.00
8:53 am 08:53 Sunny 66 18.9 26 -3.3 22 22 N 8 13 30.35 1028 10 16 0.00 0.00
9:53 am 09:53 Sunny 69 20.6 25 -3.9 19 19 NNW 13 20 30.34 1027 10 16 0.00 0.00
10:53 am 10:53 Sunny 72 22.2 24 -4.4 17 17 N 17 28 30.33 1027 10 16 0.00 0.00
11:53 am 11:53 Sunny 75 23.9 22 -5.6 14 14 N 15 24 30.30 1026 10 16 0.00 0.00
12:53 pm 12:53 Sunny 77 25 20 -6.7 12 12 NNE 22 35 30.27 1025 10 16 0.00 0.00
1:53 pm 13:53 Sunny 79 26.1 21 -6.1 11 11 N 16 26 30.24 1024 10 16 0.00 0.00
2:53 pm 14:53 Sunny 80 26.7 21 -6.1 11 11 N 18 30 30.23 1024 10 16 0.00 0.00
3:53 pm 15:53 Sunny 79 26.1 23 -5 12 12 N 20 31 30.22 1023 10 16 0.00 0.00
4:53 pm 16:53 Sunny 77 25 23 -5 13 13 N 12 19 30.21 1023 10 16 0.00 0.00
5:53 pm 17:53 Clear 75 23.9 18 -7.8 11 11 N 12 19 30.23 1024 10 16 0.00 0.00
6:53 pm 18:53 Clear 73 22.8 17 -8.3 12 12 N 12 19 30.24 1024 10 16 0.00 0.00
7:53 pm 19:53 Clear 70 21.1 18 -7.8 14 14 NNW 8 13 30.26 1025 10 16 0.00 0.00
8:53 pm 20:53 Clear 66 18.9 19 -7.2 16 16 NW 6 9 30.27 1025 10 16 0.00 0.00
9:53 pm 21:53 Clear 67 19.4 18 -7.8 15 15 NNW 7 11 30.29 1026 10 16 0.00 0.00
10:53 pm 22:53 Clear 68 20 19 -7.2 15 15 N 13 20 30.28 1025 10 16 0.00 0.00
11:53 pm 23:53 Clear 67 19.4 20 -6.7 17 17 NNW 12 19 30.27 1025 10 16 0.00 0.00

Powered by AerisWeather